Tracking 20721 objects as of 31-May-2020
HD Live streaming from Space Station
objects crossing your sky now
Track the CREW DRAGON and SPACE STATION

DELTA 1 DEB

Track DELTA 1 DEB now!
10-day predictions


NORAD ID: 37644
Int'l Code: 1978-026JF
Perigee: 794.4 km
Apogee: 877.9 km
Inclination: 98.8 °
Period: 101.5 minutes
Semi major axis: 7207 km
RCS: 0.0134 m2 (small)
Launch date: March 5, 1978
Source: United States (US)
Launch site: AIR FORCE WESTERN TEST RANGE (AFWTR)

Note: This is SATELLITE DEBRIS
aabbcc
Your satellite tracking list
Your tracking list is empty




NASA's NSSDC Master Catalog

Two Line Element Set (TLE):
1 37644U 78026JF  20150.44405282 +.00000408 +00000-0 +21343-3 0  9992
2 37644 098.8234 035.4274 0057931 168.7788 191.4695 14.18924354358793
Source of the keplerian elements: AFSPC